ブルックス第2彗星

16P/Brooks 2 (2021)

English version
Home page
Updated on January 20, 2022

---------------------------------------------------------------------

・ プロフィール

・ 軌道要素

Epoch 2021 July 5.0 TT = JDT 2459400.5
T 2021 Apr. 18.25051 TT                                 Rudenko
q   1.8781602            (2000.0)            P               Q
n   0.14102038     Peri.  245.18114     +0.91239228     -0.40785514
a   3.6555113      Node   138.86510     +0.39195212     +0.84623177
e   0.4862114      Incl.    3.01163     +0.11795704     +0.34284979
P   6.99
From 442 observations 2001 Oct. 22-2021 Sept. 13, mean residual 0".9.
     Nongravitational parameters A1 = +0.77, A2 = -0.2030.

・ 光度変化

        m1 = 11.3 + 5 logΔ + 15.0 log r

---------------------------------------------------------------------

軌道要素はM.P.E.C. 2021-S45に掲載されたものです。
光度グラフはComet for Windowsで作成したものです。

---------------------------------------------------------------------

Copyright(C) Seiichi Yoshida (comet@aerith.net). All rights reserved.